[Date Prev][Date Next][Thread Prev][Thread Next] - [Date Index][Thread Index][Author Index]

2 Line ISS Keps 3-7



ISS
1 25544U 98067A   04067.37858796  .00013657  00000-0  13298-3 0  3273
2 25544  51.6294 124.2097 0010987 247.9638 141.5640 15.66529139302348


----
Via the sarex mailing list at AMSAT.ORG courtesy of AMSAT-NA.
To unsubscribe, send "unsubscribe sarex" to Majordomo@amsat.org



AMSAT Top AMSAT Home